Weather Roundup
Issued by NWS Corpus Christi, TX

Home | Current Version | Previous Version | Text Only | Print | Product List | Glossary On
Versions: 1 2 3 4 5 6 7 8 9 10 11 12 13 14 15 16 17 18 19 20 21 22 23 24 25 26 27 28 29 30 31 32 33 34 35 36 37 38 39 40 41 42 43 44 45 46 47 48 49 50
000
ASUS44 KCRP 240010
HRRCRP

SOUTH TEXAS REGIONAL WEATHER ROUNDUP
NATIONAL WEATHER SERVICE CORPUS CHRISTI TX
600 PM CST MON JAN 23 2017


TXZ229>244-240100-
...CORPUS CHRISTI AREA OBSERVATIONS...

CITY           SKY/WX    TMP DP  RH WIND       PRES   REMARKS
CORPUS CHRISTI PTCLDY    69  35  28 SE16      29.88S
NAS CORPUS CHR CLEAR     64  49  57 S14       29.88F
ROCKPORT       CLEAR     64  46  52 S8        29.88F
KINGSVILLE NAS CLEAR     68  39  34 SE10      29.88S
ALICE          PTCLDY    75  25  15 S7        29.85F
ORANGE GROVE   CLEAR     73  31  21 S7        29.86F
FALFURRIAS     CLEAR     77  24  13 S5        29.86F
$$

...VICTORIA AREA OBSERVATIONS...

CITY           SKY/WX    TMP DP  RH WIND       PRES   REMARKS
VICTORIA       CLEAR     70  35  27 S6        29.88F
BEEVILLE       FAIR      74  37  25 S7        29.85F
PLEASANTON     CLEAR     74  29  19 CALM      29.84F HAZE
SAN ANTONIO    CLEAR     71  29  21 S7        29.85F
$$

...LAREDO AREA OBSERVATIONS...

CITY           SKY/WX    TMP DP  RH WIND       PRES   REMARKS
LAREDO         CLEAR     79  29  16 SE8       29.85S
COTULLA        CLEAR     80  23  12 S6        29.83F
DEL RIO        CLEAR     77  32  19 E10       29.77F
MCALLEN        CLEAR     77  36  22 SE9       29.89F
HEBBRONVILLE   CLEAR     77  25  14 S5        29.88S HAZE
$$

...OTHER TEXAS OBSERVATIONS...

CITY           SKY/WX    TMP DP  RH WIND       PRES   REMARKS
BROWNSVILLE    CLEAR     69  36  29 SE9       29.92S
HOUSTON        CLEAR     63  40  42 SW3       29.88F
COL. STATION   CLEAR     64  40  41 S7        29.86F
AUSTIN         CLEAR     66  35  31 S7        29.84S
WACO           CLEAR     61  41  47 SE8       29.83F
FORT WORTH     PTCLDY    62  36  37 S9        29.79F
WICHITA FALLS  CLEAR     61  36  39 SE8       29.73S
LUBBOCK        PTCLDY    66  30  26 SW16      29.73F
EL PASO        PTCLDY    66  24  20 SW8       29.80F
$$

...MARINE OBSERVATIONS...

STATION/POSITION TIME  SKY/WX   TEMP    WIND        PRES    VSBY  WAVE   SWELL
                                AIR SEA DIR/SP/G                  HT/PER HT/PER
                 (UTC)          (F)     (DEG/KT/KT) (MB)    (MI)  (FT/S) (FT/S)
PORT ARANSAS     0000            64 64  150/ 10/ 11 1012.3F
BUOY 90 E PORT A 2250            66 72  260/  8/  8 1013.6          1/ 3   2/ 5
BUOY 45 SE BAFFI 2250            68     170/ 10/ 12 1012.7          2/ 4   2/ 6
BUOY 200 E PT IS 2250            70 74  320/ 12/ 16 1014.2          6/ 8   5/ 8
BUOY 15 E GALVES 2250            65 65  260/  8/  8 1012.9          1
$$




USA.gov is the U.S. government's official web portal to all federal, state and local government web resources and services.